<?xml version="1.0" encoding="UTF-8" standalone="no" ?>
<gpx xmlns="http://www.topografix.com/GPX/1/1" xmlns:xsi="http://www.w3.org/2001/XMLSchema-instance" xsi:schemaLocation="http://www.topografix.com/GPX/1/1 http://www.topografix.com/GPX/1/1/gpx.xsd" version="1.1" creator="VisuGPX - https://www.visugpx.com">
  <metadata>
    <name>Parcours voiture algarve 1</name>
    <desc><![CDATA[Parcours voiture algarve 1]]></desc>
  </metadata>
  <trk>
    <name><![CDATA[ACTIVE LOG115257]]></name>
    <trkseg>
      <trkpt lat="37.02127" lon="-7.96546">
        <ele>15.184</ele>
        <time>2011-08-05T09:52:57Z</time>
      </trkpt>
      <trkpt lat="37.02123" lon="-7.96546">
        <ele>16.114</ele>
        <time>2011-08-05T09:53:14Z</time>
      </trkpt>
      <trkpt lat="37.02123" lon="-7.96543">
        <ele>16.324</ele>
        <time>2011-08-05T09:53:50Z</time>
      </trkpt>
      <trkpt lat="37.02129" lon="-7.96545">
        <ele>15.05</ele>
        <time>2011-08-05T09:55:57Z</time>
      </trkpt>
      <trkpt lat="37.02133" lon="-7.96539">
        <ele>14.235</ele>
        <time>2011-08-05T09:56:01Z</time>
      </trkpt>
      <trkpt lat="37.02168" lon="-7.96506">
        <ele>11.503</ele>
        <time>2011-08-05T09:56:18Z</time>
      </trkpt>
      <trkpt lat="37.02178" lon="-7.96505">
        <ele>9.057</ele>
        <time>2011-08-05T09:56:30Z</time>
      </trkpt>
      <trkpt lat="37.02179" lon="-7.96505">
        <ele>8.832</ele>
        <time>2011-08-05T09:56:31Z</time>
      </trkpt>
      <trkpt lat="37.02182" lon="-7.96522">
        <ele>8.522</ele>
        <time>2011-08-05T09:56:36Z</time>
      </trkpt>
      <trkpt lat="37.02196" lon="-7.96596">
        <ele>10.427</ele>
        <time>2011-08-05T09:56:48Z</time>
      </trkpt>
      <trkpt lat="37.02197" lon="-7.96606">
        <ele>10.383</ele>
        <time>2011-08-05T09:56:57Z</time>
      </trkpt>
      <trkpt lat="37.02199" lon="-7.9662">
        <ele>10.799</ele>
        <time>2011-08-05T09:57:11Z</time>
      </trkpt>
      <trkpt lat="37.02202" lon="-7.96641">
        <ele>10.995</ele>
        <time>2011-08-05T09:57:20Z</time>
      </trkpt>
      <trkpt lat="37.02203" lon="-7.96644">
        <ele>11.025</ele>
        <time>2011-08-05T09:57:28Z</time>
      </trkpt>
      <trkpt lat="37.02204" lon="-7.96644">
        <ele>11.175</ele>
        <time>2011-08-05T09:57:30Z</time>
      </trkpt>
      <trkpt lat="37.02201" lon="-7.96632">
        <ele>11.86</ele>
        <time>2011-08-05T09:57:34Z</time>
      </trkpt>
      <trkpt lat="37.02198" lon="-7.96611">
        <ele>11.15</ele>
        <time>2011-08-05T09:57:38Z</time>
      </trkpt>
      <trkpt lat="37.02169" lon="-7.96543">
        <ele>11.572</ele>
        <time>2011-08-05T09:57:42Z</time>
      </trkpt>
      <trkpt lat="37.02142" lon="-7.96607">
        <ele>12.567</ele>
        <time>2011-08-05T09:57:49Z</time>
      </trkpt>
      <trkpt lat="37.02131" lon="-7.96637">
        <ele>11.772</ele>
        <time>2011-08-05T09:57:56Z</time>
      </trkpt>
      <trkpt lat="37.0214" lon="-7.96765">
        <ele>10.171</ele>
        <time>2011-08-05T09:58:11Z</time>
      </trkpt>
      <trkpt lat="37.02154" lon="-7.96796">
        <ele>10.919</ele>
        <time>2011-08-05T09:58:21Z</time>
      </trkpt>
      <trkpt lat="37.02165" lon="-7.96875">
        <ele>11.131</ele>
        <time>2011-08-05T09:58:33Z</time>
      </trkpt>
      <trkpt lat="37.02168" lon="-7.96897">
        <ele>13.024</ele>
        <time>2011-08-05T09:58:45Z</time>
      </trkpt>
      <trkpt lat="37.02173" lon="-7.96932">
        <ele>13.882</ele>
        <time>2011-08-05T09:58:51Z</time>
      </trkpt>
      <trkpt lat="37.02182" lon="-7.96987">
        <ele>15.305</ele>
        <time>2011-08-05T09:58:57Z</time>
      </trkpt>
      <trkpt lat="37.02218" lon="-7.97026">
        <ele>17.601</ele>
        <time>2011-08-05T09:59:06Z</time>
      </trkpt>
      <trkpt lat="37.02254" lon="-7.9702">
        <ele>19.652</ele>
        <time>2011-08-05T09:59:11Z</time>
      </trkpt>
      <trkpt lat="37.02284" lon="-7.97015">
        <ele>19.304</ele>
        <time>2011-08-05T09:59:16Z</time>
      </trkpt>
      <trkpt lat="37.02328" lon="-7.9701">
        <ele>17.374</ele>
        <time>2011-08-05T09:59:21Z</time>
      </trkpt>
      <trkpt lat="37.02378" lon="-7.97005">
        <ele>16.265</ele>
        <time>2011-08-05T09:59:26Z</time>
      </trkpt>
      <trkpt lat="37.02533" lon="-7.96972">
        <ele>19.219</ele>
        <time>2011-08-05T09:59:37Z</time>
      </trkpt>
      <trkpt lat="37.02796" lon="-7.96915">
        <ele>15.081</ele>
        <time>2011-08-05T09:59:52Z</time>
      </trkpt>
      <trkpt lat="37.03014" lon="-7.96836">
        <ele>15.582</ele>
        <time>2011-08-05T10:00:05Z</time>
      </trkpt>
      <trkpt lat="37.0314" lon="-7.96723">
        <ele>17.846</ele>
        <time>2011-08-05T10:00:14Z</time>
      </trkpt>
      <trkpt lat="37.03253" lon="-7.96533">
        <ele>20.662</ele>
        <time>2011-08-05T10:00:25Z</time>
      </trkpt>
      <trkpt lat="37.03501" lon="-7.96082">
        <ele>22.503</ele>
        <time>2011-08-05T10:00:50Z</time>
      </trkpt>
      <trkpt lat="37.03616" lon="-7.95877">
        <ele>19.816</ele>
        <time>2011-08-05T10:01:01Z</time>
      </trkpt>
      <trkpt lat="37.03694" lon="-7.95662">
        <ele>16.971</ele>
        <time>2011-08-05T10:01:11Z</time>
      </trkpt>
      <trkpt lat="37.03798" lon="-7.95356">
        <ele>10.715</ele>
        <time>2011-08-05T10:01:25Z</time>
      </trkpt>
      <trkpt lat="37.03916" lon="-7.95098">
        <ele>12.228</ele>
        <time>2011-08-05T10:01:38Z</time>
      </trkpt>
      <trkpt lat="37.03986" lon="-7.9498">
        <ele>13.048</ele>
        <time>2011-08-05T10:01:46Z</time>
      </trkpt>
      <trkpt lat="37.03985" lon="-7.94917">
        <ele>12.241</ele>
        <time>2011-08-05T10:01:52Z</time>
      </trkpt>
      <trkpt lat="37.03949" lon="-7.94907">
        <ele>13.73</ele>
        <time>2011-08-05T10:01:56Z</time>
      </trkpt>
      <trkpt lat="37.03922" lon="-7.94954">
        <ele>15.291</ele>
        <time>2011-08-05T10:02:00Z</time>
      </trkpt>
      <trkpt lat="37.03944" lon="-7.94986">
        <ele>15.214</ele>
        <time>2011-08-05T10:02:04Z</time>
      </trkpt>
      <trkpt lat="37.0396" lon="-7.94998">
        <ele>16.014</ele>
        <time>2011-08-05T10:02:07Z</time>
      </trkpt>
      <trkpt lat="37.04054" lon="-7.95044">
        <ele>12.857</ele>
        <time>2011-08-05T10:02:15Z</time>
      </trkpt>
      <trkpt lat="37.04231" lon="-7.95135">
        <ele>12.767</ele>
        <time>2011-08-05T10:02:26Z</time>
      </trkpt>
      <trkpt lat="37.04383" lon="-7.95202">
        <ele>12.031</ele>
        <time>2011-08-05T10:02:37Z</time>
      </trkpt>
      <trkpt lat="37.0464" lon="-7.9527">
        <ele>10.1</ele>
        <time>2011-08-05T10:02:53Z</time>
      </trkpt>
      <trkpt lat="37.04797" lon="-7.95285">
        <ele>10.309</ele>
        <time>2011-08-05T10:03:05Z</time>
      </trkpt>
      <trkpt lat="37.04982" lon="-7.95302">
        <ele>11.313</ele>
        <time>2011-08-05T10:03:19Z</time>
      </trkpt>
      <trkpt lat="37.05069" lon="-7.95329">
        <ele>12.718</ele>
        <time>2011-08-05T10:03:27Z</time>
      </trkpt>
      <trkpt lat="37.05073" lon="-7.95331">
        <ele>12.908</ele>
        <time>2011-08-05T10:03:33Z</time>
      </trkpt>
      <trkpt lat="37.05097" lon="-7.95343">
        <ele>13.759</ele>
        <time>2011-08-05T10:04:00Z</time>
      </trkpt>
      <trkpt lat="37.05166" lon="-7.95384">
        <ele>16.155</ele>
        <time>2011-08-05T10:04:08Z</time>
      </trkpt>
      <trkpt lat="37.05286" lon="-7.95459">
        <ele>18.154</ele>
        <time>2011-08-05T10:04:17Z</time>
      </trkpt>
      <trkpt lat="37.05388" lon="-7.95569">
        <ele>20.06</ele>
        <time>2011-08-05T10:04:25Z</time>
      </trkpt>
      <trkpt lat="37.05609" lon="-7.95887">
        <ele>25.182</ele>
        <time>2011-08-05T10:04:44Z</time>
      </trkpt>
      <trkpt lat="37.05786" lon="-7.96157">
        <ele>27.628</ele>
        <time>2011-08-05T10:05:00Z</time>
      </trkpt>
      <trkpt lat="37.05912" lon="-7.96361">
        <ele>28.29</ele>
        <time>2011-08-05T10:05:13Z</time>
      </trkpt>
      <trkpt lat="37.06088" lon="-7.96645">
        <ele>30.916</ele>
        <time>2011-08-05T10:05:32Z</time>
      </trkpt>
      <trkpt lat="37.06113" lon="-7.96687">
        <ele>31.885</ele>
        <time>2011-08-05T10:05:37Z</time>
      </trkpt>
      <trkpt lat="37.06113" lon="-7.96687">
        <ele>32.162</ele>
        <time>2011-08-05T10:05:59Z</time>
      </trkpt>
      <trkpt lat="37.06131" lon="-7.96716">
        <ele>32.179</ele>
        <time>2011-08-05T10:06:20Z</time>
      </trkpt>
      <trkpt lat="37.06195" lon="-7.96823">
        <ele>33.683</ele>
        <time>2011-08-05T10:06:29Z</time>
      </trkpt>
      <trkpt lat="37.06293" lon="-7.96973">
        <ele>34.153</ele>
        <time>2011-08-05T10:06:38Z</time>
      </trkpt>
      <trkpt lat="37.06443" lon="-7.97173">
        <ele>35.239</ele>
        <time>2011-08-05T10:06:51Z</time>
      </trkpt>
      <trkpt lat="37.06695" lon="-7.97478">
        <ele>38.397</ele>
        <time>2011-08-05T10:07:12Z</time>
      </trkpt>
      <trkpt lat="37.06865" lon="-7.97621">
        <ele>36.798</ele>
        <time>2011-08-05T10:07:25Z</time>
      </trkpt>
      <trkpt lat="37.07042" lon="-7.97702">
        <ele>32.528</ele>
        <time>2011-08-05T10:07:37Z</time>
      </trkpt>
      <trkpt lat="37.07057" lon="-7.97705">
        <ele>32.354</ele>
        <time>2011-08-05T10:07:38Z</time>
      </trkpt>
      <trkpt lat="37.07116" lon="-7.97708">
        <ele>32.494</ele>
        <time>2011-08-05T10:07:42Z</time>
      </trkpt>
      <trkpt lat="37.07191" lon="-7.97703">
        <ele>33.487</ele>
        <time>2011-08-05T10:07:47Z</time>
      </trkpt>
      <trkpt lat="37.07233" lon="-7.97709">
        <ele>35.103</ele>
        <time>2011-08-05T10:07:50Z</time>
      </trkpt>
      <trkpt lat="37.07311" lon="-7.97779">
        <ele>38.027</ele>
        <time>2011-08-05T10:07:57Z</time>
      </trkpt>
      <trkpt lat="37.07328" lon="-7.97811">
        <ele>38.516</ele>
        <time>2011-08-05T10:07:59Z</time>
      </trkpt>
      <trkpt lat="37.07476" lon="-7.98196">
        <ele>50.307</ele>
        <time>2011-08-05T10:08:20Z</time>
      </trkpt>
      <trkpt lat="37.0759" lon="-7.98404">
        <ele>54.24</ele>
        <time>2011-08-05T10:08:32Z</time>
      </trkpt>
      <trkpt lat="37.07676" lon="-7.98546">
        <ele>56.49</ele>
        <time>2011-08-05T10:08:42Z</time>
      </trkpt>
      <trkpt lat="37.07681" lon="-7.98559">
        <ele>56.677</ele>
        <time>2011-08-05T10:08:43Z</time>
      </trkpt>
      <trkpt lat="37.07695" lon="-7.9877">
        <ele>54.114</ele>
        <time>2011-08-05T10:08:58Z</time>
      </trkpt>
      <trkpt lat="37.07729" lon="-7.98912">
        <ele>54.187</ele>
        <time>2011-08-05T10:09:08Z</time>
      </trkpt>
      <trkpt lat="37.07829" lon="-7.99088">
        <ele>59.808</ele>
        <time>2011-08-05T10:09:21Z</time>
      </trkpt>
      <trkpt lat="37.0786" lon="-7.9914">
        <ele>61.66</ele>
        <time>2011-08-05T10:09:25Z</time>
      </trkpt>
      <trkpt lat="37.07929" lon="-7.99367">
        <ele>57.822</ele>
        <time>2011-08-05T10:09:40Z</time>
      </trkpt>
      <trkpt lat="37.07979" lon="-7.99657">
        <ele>46.052</ele>
        <time>2011-08-05T10:09:57Z</time>
      </trkpt>
      <trkpt lat="37.08029" lon="-7.99958">
        <ele>40.855</ele>
        <time>2011-08-05T10:10:15Z</time>
      </trkpt>
      <trkpt lat="37.08098" lon="-8.00276">
        <ele>49.253</ele>
        <time>2011-08-05T10:10:34Z</time>
      </trkpt>
      <trkpt lat="37.08112" lon="-8.00438">
        <ele>45.414</ele>
        <time>2011-08-05T10:10:44Z</time>
      </trkpt>
      <trkpt lat="37.08115" lon="-8.0073">
        <ele>38.149</ele>
        <time>2011-08-05T10:11:00Z</time>
      </trkpt>
      <trkpt lat="37.08137" lon="-8.00868">
        <ele>39.455</ele>
        <time>2011-08-05T10:11:09Z</time>
      </trkpt>
      <trkpt lat="37.08178" lon="-8.01007">
        <ele>42.841</ele>
        <time>2011-08-05T10:11:20Z</time>
      </trkpt>
      <trkpt lat="37.08183" lon="-8.01021">
        <ele>45.497</ele>
        <time>2011-08-05T10:11:27Z</time>
      </trkpt>
      <trkpt lat="37.08182" lon="-8.01019">
        <ele>45.338</ele>
        <time>2011-08-05T10:11:28Z</time>
      </trkpt>
      <trkpt lat="37.08215" lon="-8.00952">
        <ele>49.52</ele>
        <time>2011-08-05T10:11:39Z</time>
      </trkpt>
      <trkpt lat="37.08225" lon="-8.00897">
        <ele>52.599</ele>
        <time>2011-08-05T10:11:50Z</time>
      </trkpt>
      <trkpt lat="37.08226" lon="-8.0089">
        <ele>51.841</ele>
        <time>2011-08-05T10:11:53Z</time>
      </trkpt>
      <trkpt lat="37.08228" lon="-8.00877">
        <ele>49.499</ele>
        <time>2011-08-05T10:11:58Z</time>
      </trkpt>
      <trkpt lat="37.08229" lon="-8.00875">
        <ele>48.939</ele>
        <time>2011-08-05T10:12:11Z</time>
      </trkpt>
    </trkseg>
  </trk>
</gpx>